Terminal Aerodrome Forecast
Issued by NWS Quad Cities IA IL

Home | Current Version | Previous Version | Text Only | Print | Product List | Glossary On
Versions: 1 2 3 4 5 6 7 8 9 10 11 12 13 14 15 16 17 18 19 20 21 22 23 24 25 26 27 28 29 30 31 32 33 34 35 36 37
988
FTUS43 KDVN 060520
TAFDBQ
TAF
KDBQ 060520Z 0606/0706 16010KT 4SM BR OVC004
     FM060800 16008KT 1/2SM FZFG OVC001
     FM061000 17005KT 1/4SM FZFG VV001
     FM061500 27015G25KT P6SM BKN120
     FM062300 26010KT P6SM SKC=

USA.gov is the U.S. government's official web portal to all federal, state and local government web resources and services.